This demonstration page uses our WeatherBlox Daily Observations layout. Learn more.

Left ArrowRight Arrow

Hourly Observations for May 7, 2015

Temp ( °F °C ) Dew Point ( °F °C ) Humidity (%) Winds ( mph kmh ) Pressure ( in mb ) Visibility ( mi km ) Precip ( " mm )
12:38 am 00:38 Cloudy with Heavy Rain 64 18 63 17 94 94 ESE 7 11 29.71 1006 3 5 0.00 0.00
12:52 am 00:52 Cloudy with Rain 65 18.3 62 16.7 90 90 S 22 35 29.73 1007 3 5 0.23 5.84
12:58 am 00:58 Cloudy with Rain 64 18 63 17 94 94 S 18 30 29.71 1006 3 5 0.00 0.00
1:00 am 01:00 Cloudy with Thunderstorms 64 18 63 17 94 94 S 23 37 29.71 1006 3 5 0.00 0.00
1:27 am 01:27 Cloudy with Rain 62 16.7 59 15 90 90 S 18 30 29.74 1007 4 6 0.10 2.54
1:52 am 01:52 Cloudy with Heavy Rain 61 16.1 59 15 93 93 SSE 17 28 29.75 1007 3 5 0.22 5.59
2:28 am 02:28 Cloudy with Strong Thunderstorms 61 16 61 16 100 100 S 13 20 29.74 1007 3 5 0.00 0.00
2:52 am 02:52 Cloudy with Thunderstorms 61 16.1 60 15.6 97 97 E 3 6 29.74 1007 4 6 0.38 9.65
3:15 am 03:15 Cloudy with Rain 60 15.6 60 15.6 100 100 WNW 8 13 29.74 1007 4 6 0.13 3.30
3:27 am 03:27 Cloudy with Strong Thunderstorms 61 16.1 60 15.6 97 97 W 5 7 29.71 1006 3 5 0.19 4.83
3:52 am 03:52 Cloudy with Strong Thunderstorms 61 16.1 60 15.6 97 97 NE 5 7 29.74 1007 3 5 0.28 7.11
3:55 am 03:55 Cloudy with Strong Thunderstorms 61 16.1 60 15.6 97 97 NE 6 9 29.74 1007 2 3 0.11 2.79
4:12 am 04:12 Cloudy with Thunderstorms 61 16 61 16 100 100 Calm 29.74 1007 4 6 0.00 0.00
4:22 am 04:22 Cloudy with Strong Thunderstorms 61 16 61 16 100 100 W 7 11 29.74 1007 2 3 0.00 0.00
4:52 am 04:52 Cloudy with Strong Thunderstorms 61 16.1 60 15.6 97 97 SE 8 13 29.74 1007 3 4 0.60 15.24
4:59 am 04:59 Cloudy with Light Rain 61 16.1 60 15.6 97 97 SE 10 17 29.74 1007 6 10 0.02 0.51
5:48 am 05:48 Windy with Storms Likely 63 17 61 16 94 94 SSE 20 31 29.68 1005 8 13 0.00 0.00
5:52 am 05:52 Windy with Storms Likely 62 16.7 60 15.6 93 93 S 20 31 29.72 1006 8 13 0.07 1.78
6:06 am 06:06 Cloudy with Strong Thunderstorms 63 17 61 16 94 94 S 20 31 29.71 1006 2 3 0.00 0.00
6:15 am 06:15 Cloudy with Thunderstorms 62 16.7 60 15.6 93 93 SSE 13 20 29.68 1005 4 6 0.19 4.83
6:33 am 06:33 Mostly Cloudy 62 16.7 60 15.6 93 93 SSE 15 24 29.68 1005 10 16 0.20 5.08
6:52 am 06:52 Mostly Cloudy 62 16.7 60 15.6 93 93 SSE 12 19 29.70 1006 10 16 0.20 5.08
7:52 am 07:52 Cloudy 64 17.8 60 15.6 87 87 SE 17 28 29.72 1007 10 16 0.00 0.00
8:52 am 08:52 Mostly Cloudy 67 19.4 61 16.1 81 81 SSE 17 28 29.73 1007 10 16 0.00 0.00
9:52 am 09:52 Mostly Cloudy 69 20.6 61 16.1 76 76 S 17 28 29.73 1007 10 16 0.00 0.00
10:32 am 10:32 Mostly Cloudy 72 22 61 16 69 69 S 15 24 29.71 1006 10 16 0.00 0.00
10:52 am 10:52 Mostly Cloudy 72 22.2 62 16.7 71 71 S 14 22 29.74 1007 10 16 0.00 0.00
11:21 am 11:21 Cloudy 73 22.8 62 16.7 69 69 S 14 22 29.71 1006 10 16 0.00 0.00
11:37 am 11:37 Mostly Cloudy 74 23.3 62 16.7 67 67 S 20 31 29.71 1006 10 16 0.00 0.00
11:52 am 11:52 Mostly Cloudy 74 23.3 61 16.1 64 64 SSW 21 33 29.75 1007 10 16 0.00 0.00
12:52 pm 12:52 Mostly Cloudy 75 23.9 61 16.1 62 62 SW 14 22 29.76 1008 10 16 0.00 0.00
1:52 pm 13:52 Partly Cloudy 79 26.1 61 16.1 54 54 SW 16 26 29.76 1008 10 16 0.00 0.00
2:52 pm 14:52 Mostly Cloudy 77 25 59 15 54 54 SW 15 24 29.76 1008 10 16 0.00 0.00
3:52 pm 15:52 Partly Cloudy 80 26.7 59 15 49 49 WSW 13 20 29.75 1007 10 16 0.00 0.00
4:52 pm 16:52 Partly Cloudy 79 26.1 60 15.6 52 52 WSW 16 26 29.75 1007 10 16 0.00 0.00
5:52 pm 17:52 Partly Cloudy 78 25.6 60 15.6 54 54 W 15 24 29.76 1008 10 16 0.00 0.00
6:52 pm 18:52 Mostly Cloudy 76 24.4 61 16.1 60 60 W 10 17 29.80 1009 10 16 0.00 0.00
7:52 pm 19:52 Mostly Cloudy 71 21.7 59 15 66 66 W 12 19 29.83 1010 10 16 0.00 0.00
8:52 pm 20:52 Mostly Cloudy 68 20 57 13.9 68 68 WNW 14 22 29.83 1010 10 16 0.00 0.00
9:52 pm 21:52 Cloudy 63 17.2 56 13.3 78 78 NW 15 24 29.86 1011 10 16 0.00 0.00
10:42 pm 22:42 Cloudy 61 16 55 13 83 83 NNW 17 28 29.91 1013 10 16 0.00 0.00
10:52 pm 22:52 Cloudy 61 16.1 54 12.2 78 78 NNW 15 24 29.91 1013 10 16 0.00 0.00
11:52 pm 23:52 Cloudy 59 15 53 11.7 81 81 NW 13 20 29.94 1014 10 16 0.00 0.00

Powered by AerisWeather